Time_in_sec,Mx,My,Mz
1314363692.17245674,-0.77001679,0.66492945,-0.22979535
1314363692.21259451,-0.76583034,0.66528112,-0.23103902
1314363692.27245474,-0.76477933,0.66374320,-0.23204555
1314363692.32091928,-0.76656693,0.66392136,-0.23114344
1314363692.36147690,-0.76996380,0.66523075,-0.23027097
1314363692.42071533,-0.76932901,0.66190618,-0.23155820
1314363692.47261858,-0.77007109,0.66343492,-0.22999384
1314363692.52156115,-0.76787692,0.66430777,-0.23000811
1314363692.56154108,-0.77031308,0.66307253,-0.23175895
1314363692.61262894,-0.76915991,0.66420203,-0.23075625
1314363692.67262030,-0.76678783,0.66793066,-0.23428941
1314363692.71362138,-0.76893175,0.66487271,-0.23371610
1314363692.76146078,-0.76806819,0.66460037,-0.23312435
1314363692.81261492,-0.77332622,0.66445565,-0.22998360
1314363692.87348795,-0.76867902,0.66494632,-0.23268528
1314363692.92146134,-0.76998734,0.66497344,-0.23384036
1314363692.96153975,-0.77314544,0.66385585,-0.23388012
1314363693.02147961,-0.77209330,0.66526026,-0.23450412
1314363693.07350206,-0.77318686,0.66353500,-0.23597635
1314363693.11362433,-0.77038574,0.66477489,-0.23501384
1314363693.17344165,-0.77063113,0.66400439,-0.23461753
1314363693.22162318,-0.77151412,0.66568810,-0.23535597
1314363693.26163244,-0.77449894,0.66315407,-0.23497027
1314363693.32147145,-0.77523565,0.66381085,-0.23569249
1314363693.36147404,-0.77473497,0.66430134,-0.23418315
1314363693.42147088,-0.77265906,0.66455698,-0.23622328
1314363693.47346830,-0.77311671,0.66710466,-0.23438029
1314363693.52159953,-0.77325159,0.66444319,-0.23693132
1314363693.57401824,-0.77512634,0.66432661,-0.23609477
1314363693.62303925,-0.76886600,0.66634226,-0.23925468
1314363693.66078496,-0.77502942,0.66330910,-0.23689094
1314363693.71347618,-0.77257043,0.66354108,-0.23715486
1314363693.76047039,-0.77149123,0.66570854,-0.23724355
1314363693.82152200,-0.77362359,0.66635948,-0.23602298
1314363693.87351012,-0.77466691,0.66402692,-0.23626254
1314363693.92172003,-0.76988232,0.66293114,-0.23462816
1314363693.97570491,-0.77253729,0.66488701,-0.23506655
1314363694.02093220,-0.76669031,0.66391438,-0.23404591
1314363694.06210876,-0.77155691,0.66228944,-0.23283207
1314363694.11976123,-0.77294075,0.66338474,-0.23420712
1314363694.16059804,-0.77285606,0.66492897,-0.23488840
1314363694.21247816,-0.77007365,0.66335708,-0.23458034
1314363694.26172042,-0.76750654,0.66548789,-0.23282865
1314363694.31049013,-0.77226382,0.66527396,-0.23188865
1314363694.37377667,-0.76938605,0.66680473,-0.23416173
1314363694.41348147,-0.76733488,0.66706514,-0.23660807
1314363694.47276807,-0.76927269,0.66578412,-0.23468710
1314363694.52150154,-0.76989251,0.66536993,-0.23134717
1314363694.57259178,-0.77169096,0.66372794,-0.23170887
1314363694.62153769,-0.76852733,0.66304791,-0.23495515
1314363694.67353725,-0.77100110,0.66473794,-0.23470663
1314363694.72160292,-0.76749885,0.66432887,-0.23598422
1314363694.76147556,-0.77110761,0.66509253,-0.23188300
1314363694.82060552,-0.76994741,0.66202325,-0.23354605
1314363694.86084127,-0.76985347,0.66343743,-0.23409079
1314363694.92146564,-0.77202064,0.66322953,-0.23266861
1314363694.96147132,-0.77059948,0.66538113,-0.23165806
1314363695.02147198,-0.77038264,0.66541409,-0.23488358
1314363695.07282281,-0.77155906,0.66347158,-0.23183420
1314363695.11512756,-0.76834965,0.66319692,-0.23339990
1314363695.17709041,-0.76964003,0.66421950,-0.23186350
1314363695.22053576,-0.76653206,0.66616464,-0.23709437
1314363695.27261829,-0.77199489,0.66412038,-0.23213418
1314363695.31386304,-0.76911825,0.66373187,-0.23466268
1314363695.36144853,-0.76963091,0.66204226,-0.23198146
1314363695.41259241,-0.77139270,0.66499436,-0.23432662
1314363695.47359848,-0.76693553,0.66519105,-0.23339535
1314363695.52050376,-0.76949507,0.66444188,-0.23259391
1314363695.56148481,-0.77234274,0.66397899,-0.23423916
1314363695.62165070,-0.77111417,0.66404545,-0.22985229
1314363695.67252445,-0.77066052,0.66396034,-0.23057160
1314363695.70945120,-0.76845551,0.66411299,-0.23503186
1314363695.76149440,-0.76862985,0.66473657,-0.23329283
1314363695.82147241,-0.77144903,0.66306657,-0.23007093
1314363695.87284899,-0.77280056,0.66415054,-0.23406987
1314363695.91367221,-0.76979744,0.66335386,-0.23456429
1314363695.96147490,-0.76971275,0.66489810,-0.23524559
1314363696.01258349,-0.77239859,0.66465992,-0.23418531
1314363696.06056738,-0.77018929,0.66486520,-0.23176530
1314363696.11390615,-0.77123338,0.66550636,-0.23075138
1314363696.16054130,-0.76966637,0.66629690,-0.23430906
1314363696.22147250,-0.77182651,0.66733700,-0.23349778
1314363696.27347827,-0.77282953,0.66694653,-0.23193406
1314363696.31665087,-0.77037477,0.66359621,-0.23271085
1314363696.36146355,-0.77010030,0.66464192,-0.23486139
1314363696.41361237,-0.77270693,0.66477245,-0.23245020
1314363696.47032142,-0.76965618,0.66501522,-0.23429881
1314363696.51270127,-0.77092463,0.66721016,-0.23452382
1314363696.56051922,-0.76984769,0.66553897,-0.23512332
1314363696.62160635,-0.77176917,0.66323102,-0.23305877
1314363696.67294836,-0.77524424,0.66301984,-0.23366337
1314363696.72160029,-0.77021641,0.66683960,-0.23650362
1314363696.76145387,-0.77404970,0.66288656,-0.23440257
1314363696.81275201,-0.77370423,0.66430259,-0.23533759
1314363696.87278605,-0.77145249,0.66414064,-0.23453127
1314363696.92154002,-0.77092999,0.66375601,-0.23503771
1314363696.96154380,-0.77369833,0.66478848,-0.23291253
1314363697.02147412,-0.77424300,0.66343546,-0.23752084
1314363697.07261419,-0.77464288,0.66369349,-0.23727617
1314363697.12160063,-0.77024537,0.66326201,-0.23742269
1314363697.16148019,-0.77524048,0.66422051,-0.23798934
1314363697.22165036,-0.77267152,0.66302377,-0.23661718
1314363697.27265191,-0.77535933,0.66406560,-0.23543176
1314363697.31347442,-0.77528965,0.66297507,-0.24122064
1314363697.37264276,-0.77269584,0.66382104,-0.23918790
1314363697.41268778,-0.77353668,0.66536874,-0.23924831
1314363697.46051836,-0.77306110,0.66655350,-0.24260242
1314363697.52166533,-0.77547729,0.66526479,-0.23949495
1314363697.57449055,-0.77637911,0.66641539,-0.23834172
1314363697.62071967,-0.77384245,0.66476262,-0.24209458
1314363697.67263341,-0.77640289,0.66322070,-0.23912847
1314363697.71367860,-0.77630222,0.66442764,-0.24412340
1314363697.77251172,-0.77416342,0.66562051,-0.23820727
1314363697.81380773,-0.77635419,0.66515577,-0.24035442
1314363697.87347794,-0.77522588,0.66321880,-0.24013948
1314363697.92169857,-0.77383250,0.66371214,-0.23979262
1314363697.96146727,-0.77616775,0.66527283,-0.23953503
1314363698.01267385,-0.77754945,0.66518599,-0.24190795
1314363698.06067514,-0.77499110,0.66345459,-0.23850873
1314363698.12147141,-0.77763081,0.66404986,-0.24338812
1314363698.16208005,-0.77744013,0.66570175,-0.24231024
1314363698.22147083,-0.77700561,0.66541225,-0.23971957
1314363698.27357984,-0.77839071,0.66491735,-0.23993105
1314363698.31366563,-0.77699924,0.66338837,-0.24213232
1314363698.36152291,-0.77747041,0.66248351,-0.24093863
1314363698.42065930,-0.77787709,0.66545504,-0.24273844
1314363698.46150279,-0.77780920,0.66518611,-0.24165320
1314363698.52148461,-0.77856380,0.66415787,-0.24060991
1314363698.56161451,-0.77871805,0.66393149,-0.24318044
1314363698.61366463,-0.77851516,0.66404539,-0.24209026
1314363698.67346764,-0.77780926,0.66416234,-0.24178040
1314363698.71254134,-0.77748746,0.66545492,-0.24312058
1314363698.76145554,-0.77806842,0.66472387,-0.24598186
1314363698.81264186,-0.77898091,0.66431606,-0.24292876
1314363698.86045694,-0.77776265,0.66532999,-0.24313560
1314363698.92148280,-0.77885723,0.66406125,-0.24318948
1314363698.96146727,-0.77977097,0.66754240,-0.24421307
1314363699.01247549,-0.77926522,0.66636831,-0.24282581
1314363699.07264614,-0.77885139,0.66602933,-0.24738620
1314363699.12047434,-0.78035128,0.66486686,-0.24503601
1314363699.17348051,-0.77881396,0.66482079,-0.24238324
1314363699.21261454,-0.77735293,0.66550362,-0.24770010
1314363699.27363157,-0.78072143,0.66345561,-0.24450719
1314363699.31347895,-0.77900255,0.66291255,-0.24345908
1314363699.37267423,-0.78068852,0.66242558,-0.24409279
1314363699.42147231,-0.77897686,0.66277963,-0.24305186
1314363699.47258353,-0.77913821,0.66447413,-0.24550237
1314363699.52063942,-0.78016704,0.66216910,-0.24460027
1314363699.57349372,-0.77825111,0.66227776,-0.24475983
1314363699.62060356,-0.77990013,0.66127187,-0.24484783
1314363699.67257190,-0.77911705,0.66201383,-0.24318911
1314363699.70962429,-0.77888781,0.66358006,-0.24602075
1314363699.76159835,-0.77980316,0.66127813,-0.24551682
1314363699.81266451,-0.78147179,0.66396219,-0.24320541
1314363699.87354922,-0.77865028,0.66514474,-0.24871698
1314363699.92061830,-0.78066456,0.66334158,-0.24585214
1314363699.96147490,-0.77968436,0.66575909,-0.24527390
1314363700.02056813,-0.78155965,0.66177875,-0.24265440
1314363700.06059527,-0.78025949,0.66346651,-0.24596451
1314363700.12150645,-0.78092498,0.66426241,-0.24776292
1314363700.16411018,-0.78019875,0.66511846,-0.24475925
1314363700.22147441,-0.78131801,0.66385448,-0.24521933
1314363700.26954770,-0.78205335,0.66517568,-0.24810505
1314363700.32149839,-0.78166181,0.66287172,-0.24873953
1314363700.37468100,-0.78402215,0.66262084,-0.24685082
1314363700.42149997,-0.78354144,0.66316479,-0.25019979
1314363700.46164513,-0.78212476,0.66298902,-0.24728324
1314363700.52147484,-0.78409612,0.66365874,-0.24794222
1314363700.56056595,-0.78244197,0.66504759,-0.24772188
1314363700.62151074,-0.78387654,0.66251469,-0.24900015
1314363700.66976261,-0.78416502,0.66405588,-0.24902849
1314363700.72162795,-0.78366917,0.66393226,-0.24994318
1314363700.77346063,-0.78320247,0.66353345,-0.24910365
1314363700.82060814,-0.78257644,0.66420239,-0.25231025
1314363700.86150980,-0.78473401,0.66099429,-0.24971294
1314363700.92149472,-0.78543359,0.66420329,-0.24950787
1314363700.96959114,-0.78352386,0.66405725,-0.24980079
1314363701.01359630,-0.78549516,0.66142464,-0.25313306
1314363701.07031107,-0.78571671,0.66384876,-0.25195000
1314363701.12153530,-0.78435838,0.66358101,-0.25227395
1314363701.17319918,-0.78479970,0.66407806,-0.25041455
1314363701.22273922,-0.78649569,0.66259414,-0.25360462
1314363701.27256250,-0.78704435,0.66129535,-0.25146806
1314363701.32057357,-0.78694731,0.66232538,-0.25200984
1314363701.36211014,-0.78595561,0.66310191,-0.25371206
1314363701.42149520,-0.78608346,0.66284561,-0.25358263
1314363701.46955109,-0.78593606,0.66373801,-0.25331098
1314363701.52160501,-0.78810668,0.66094106,-0.25314590
1314363701.56948948,-0.78671426,0.66361004,-0.25254565
1314363701.62053347,-0.78729236,0.66625535,-0.25947955
1314363701.67252159,-0.78621852,0.66143900,-0.25371474
1314363701.70949268,-0.78779894,0.66379678,-0.25679216
1314363701.76149750,-0.78882760,0.66353917,-0.25563568
1314363701.82152343,-0.78776944,0.66235864,-0.25421631
1314363701.87254906,-0.78746539,0.66401368,-0.25353664
1314363701.92150211,-0.79084015,0.66319311,-0.25709885
1314363701.96944284,-0.78710634,0.66455609,-0.25662282
1314363702.02061152,-0.79071546,0.66281015,-0.25735855
1314363702.06052089,-0.78876364,0.66150427,-0.25710064
1314363702.10950065,-0.79007882,0.66150784,-0.25609764
1314363702.16151404,-0.79112977,0.66281497,-0.25738260
1314363702.21264338,-0.78887451,0.66613239,-0.25835615
1314363702.26151586,-0.78931957,0.66691095,-0.25879255
1314363702.32347989,-0.78902739,0.66406447,-0.25659558
1314363702.36951709,-0.79064506,0.66614866,-0.25805420
1314363702.42052841,-0.78947806,0.66514975,-0.26162156
1314363702.46050406,-0.79219443,0.66294819,-0.25677079
1314363702.50949383,-0.79044026,0.66395879,-0.25721633
1314363702.56152534,-0.78911448,0.66448992,-0.26024643
1314363702.62150383,-0.78957844,0.66473538,-0.25879115
1314363702.67314243,-0.79052269,0.66625321,-0.25602424
1314363702.72078133,-0.79139113,0.66488773,-0.25916722
1314363702.76049423,-0.78935069,0.66256595,-0.25984088
1314363702.81260228,-0.79172325,0.66385305,-0.25796449
1314363702.87367153,-0.79133838,0.66528630,-0.26051629
1314363702.92152357,-0.79253739,0.66411591,-0.25774384
1314363702.96151233,-0.79099303,0.66465485,-0.26170567
1314363703.02148652,-0.78992760,0.66564834,-0.25989756
1314363703.07251978,-0.79154783,0.66412508,-0.25957528
1314363703.12056375,-0.79335546,0.66261280,-0.26007342
1314363703.16944838,-0.79118484,0.66540974,-0.26023847
1314363703.22153878,-0.79097003,0.66672277,-0.26333886
1314363703.27255607,-0.79180270,0.66371548,-0.25702369
1314363703.30947399,-0.79309756,0.66161418,-0.26274914
1314363703.36147976,-0.79335934,0.66187060,-0.26249641
1314363703.42154002,-0.79111505,0.66386074,-0.25927839
1314363703.46944308,-0.79141551,0.66568500,-0.26173794
1314363703.52050042,-0.79325920,0.66353983,-0.26290792
1314363703.56948352,-0.79085928,0.66539705,-0.25941005
1314363703.62055802,-0.79414254,0.66443098,-0.26148185
1314363703.67255116,-0.79232055,0.66414887,-0.26096937
1314363703.71350861,-0.79400319,0.66407001,-0.26376453
1314363703.76947451,-0.79373103,0.66457945,-0.26375258
1314363703.82150745,-0.79392290,0.66533434,-0.26228538
1314363703.86103606,-0.79225546,0.66505700,-0.26205173
1314363703.91252065,-0.79251629,0.66313779,-0.26205239
1314363703.96944761,-0.79413921,0.66381532,-0.26377049
1314363704.02051783,-0.79340816,0.66676760,-0.26496455
1314363704.07248616,-0.79263479,0.66479927,-0.26153213
1314363704.10949183,-0.79477078,0.66447675,-0.26502627
1314363704.16944814,-0.79288524,0.66569334,-0.26101375
1314363704.20948410,-0.79413188,0.66598934,-0.26338172
1314363704.26944971,-0.79370534,0.66444653,-0.26334536
1314363704.32145643,-0.79414970,0.66532809,-0.26148903
1314363704.37343907,-0.79042041,0.66436374,-0.25910699
1314363704.42147994,-0.79512256,0.66508466,-0.26167852
1314363704.46949887,-0.79140490,0.66621971,-0.26376501
1314363704.52160668,-0.79233700,0.66415203,-0.26124015
1314363704.56141734,-0.79057980,0.66477817,-0.26168266
1314363704.62147212,-0.79030079,0.66462159,-0.25937182
1314363704.67353177,-0.79037601,0.66704255,-0.25804535
1314363704.72352266,-0.79359120,0.66455263,-0.26145080
1314363704.77350712,-0.79303265,0.66480094,-0.26128539
1314363704.81349349,-0.79039913,0.66645682,-0.26303393
1314363704.86949944,-0.79320782,0.66327405,-0.26209348
1314363704.92182994,-0.79258347,0.66248602,-0.26097208
1314363704.96148491,-0.79035938,0.66476077,-0.26032063
1314363705.01002932,-0.78976107,0.66433680,-0.25731474
1314363705.07246447,-0.79118901,0.66489863,-0.26036978
1314363705.12054420,-0.79040593,0.66564065,-0.25871104
1314363705.16945386,-0.78797293,0.66521293,-0.25721768
1314363705.22141862,-0.79157543,0.66656172,-0.25973016
1314363705.26144624,-0.78892606,0.66332692,-0.25955218
1314363705.32148623,-0.78848106,0.66585076,-0.25644249
1314363705.36134911,-0.78837448,0.66754359,-0.25901234
1314363705.42146873,-0.78734517,0.66585672,-0.25813049
1314363705.46170473,-0.78750300,0.66750085,-0.25599349
1314363705.52153254,-0.78794277,0.66638368,-0.25884366
1314363705.56948447,-0.78831416,0.66635549,-0.25589696
1314363705.62357473,-0.78955466,0.66690630,-0.25813159
1314363705.67253900,-0.78759491,0.66480631,-0.25557378
1314363705.70947456,-0.78933650,0.66407400,-0.25715321
1314363705.77260208,-0.79163730,0.66401422,-0.26106364
1314363705.81354761,-0.79164267,0.66488618,-0.25877705
1314363705.87253046,-0.79105043,0.66523117,-0.25577730
1314363705.90948796,-0.79023504,0.66358525,-0.25841582
1314363705.96953821,-0.78981823,0.66616416,-0.26029986
1314363706.02052617,-0.79132712,0.66490024,-0.26037779
1314363706.06953216,-0.78872961,0.66341728,-0.25630364
1314363706.12548852,-0.79066467,0.66448885,-0.25858247
1314363706.17255998,-0.78762138,0.66483617,-0.25827372
1314363706.22147703,-0.79064095,0.66665971,-0.25792289
1314363706.26935148,-0.78692913,0.66480297,-0.25593987
1314363706.31246448,-0.79162729,0.66398746,-0.25863448
1314363706.36944747,-0.79145628,0.66397953,-0.25808486
1314363706.42149663,-0.79005432,0.66628766,-0.25963992
1314363706.46159554,-0.78948003,0.66392386,-0.25500184
1314363706.52151465,-0.78496385,0.66592592,-0.25515985
1314363706.57247543,-0.78508854,0.66630888,-0.25490016
1314363706.60947680,-0.78740919,0.66584414,-0.25691992
1314363706.67342234,-0.78726941,0.66376984,-0.25487253
1314363706.72047353,-0.78664082,0.66656411,-0.25323823
1314363706.76952744,-0.78494769,0.66513020,-0.25272453
1314363706.82051706,-0.78659648,0.66286939,-0.25523147
1314363706.87351203,-0.78293520,0.66445255,-0.25138855
1314363706.92149353,-0.78632766,0.66501820,-0.25280368
1314363706.97351575,-0.78270513,0.66714549,-0.25180024
1314363707.02145481,-0.78668040,0.66245186,-0.25213024
1314363707.06957817,-0.78253943,0.66368347,-0.25176454
1314363707.12152696,-0.78566599,0.66450375,-0.25330108
1314363707.16951084,-0.78288656,0.66434014,-0.25286889
1314363707.22132373,-0.78465670,0.66719645,-0.25447708
1314363707.27334666,-0.78156549,0.66584623,-0.25131965
1314363707.32146883,-0.78447819,0.66457808,-0.24959022
1314363707.37338138,-0.78255516,0.66378963,-0.24974261
1314363707.42147636,-0.78357124,0.66278660,-0.25073832
1314363707.46952653,-0.78056765,0.66585380,-0.25301570
1314363707.52459288,-0.78478426,0.66420311,-0.25014478
1314363707.56945395,-0.78035277,0.66466087,-0.24962150
1314363707.61341476,-0.78342271,0.66559833,-0.25021127
1314363707.67252731,-0.78345484,0.66138148,-0.25126061
1314363707.71355844,-0.78475511,0.66447830,-0.25189900
1314363707.76147890,-0.78323019,0.66392267,-0.24951293
1314363707.82146001,-0.78158015,0.66582417,-0.24929669
1314363707.87335610,-0.78105074,0.66477352,-0.24750425
1314363707.92152047,-0.78677320,0.66295666,-0.25132996
1314363707.96944690,-0.78086376,0.66442835,-0.25126827
1314363708.02145815,-0.78364390,0.66448897,-0.25399321
1314363708.06138015,-0.78325075,0.66443849,-0.24978782
1314363708.12047291,-0.78004986,0.66337287,-0.24932440
1314363708.16146970,-0.77983558,0.66514820,-0.24784134
1314363708.22149372,-0.77972287,0.66607207,-0.25040507
1314363708.26945615,-0.78016531,0.66464984,-0.24880108
1314363708.32054901,-0.78604877,0.66281414,-0.25074726
1314363708.36144781,-0.78229237,0.66340500,-0.24999429
1314363708.41252160,-0.78019929,0.66376054,-0.24947089
1314363708.46151447,-0.78396893,0.66585952,-0.25011000
1314363708.52157760,-0.77958792,0.66543120,-0.25052732
1314363708.57439590,-0.77930784,0.66617024,-0.24808827
1314363708.61350870,-0.78321922,0.66376776,-0.24708274
1314363708.67253780,-0.77980334,0.66708642,-0.24933811
1314363708.72058082,-0.78150839,0.66629750,-0.24578844
1314363708.76944995,-0.77694535,0.66570634,-0.24322596
1314363708.82052374,-0.78140086,0.66683841,-0.24848448
1314363708.86952901,-0.77883506,0.66397870,-0.24736980
1314363708.90950251,-0.78153628,0.66463923,-0.24645209
1314363708.96987748,-0.78097659,0.66578311,-0.24615845
1314363709.02145648,-0.78149706,0.66693515,-0.24552277
1314363709.07291102,-0.77959228,0.66617501,-0.24823971
1314363709.12128806,-0.78333122,0.66545284,-0.24872085
1314363709.16052604,-0.77830213,0.66538364,-0.24748440
1314363709.20948243,-0.77801979,0.66461140,-0.24746221
1314363709.26950860,-0.78390241,0.66492617,-0.24686126
1314363709.30950952,-0.78458542,0.66482967,-0.24905869
1314363709.36132002,-0.78455734,0.66523308,-0.25081393
1314363709.42146993,-0.78169662,0.66620559,-0.24890159
1314363709.47349024,-0.78131479,0.66904706,-0.25132924
1314363709.52054214,-0.78506589,0.66405457,-0.24800143
1314363709.56146336,-0.78132778,0.66262633,-0.25006741
1314363709.62067914,-0.78369689,0.66534525,-0.25022525
1314363709.66046977,-0.78402108,0.66602230,-0.25321719
1314363709.70991850,-0.78422815,0.66539729,-0.25443867
1314363709.77127004,-0.78819591,0.66594893,-0.25399831
1314363709.82147908,-0.78909034,0.66494751,-0.25525680
1314363709.86927581,-0.78427345,0.66387039,-0.25537413
1314363709.92058778,-0.79012901,0.66574043,-0.25640228
1314363709.96146178,-0.78323120,0.66758049,-0.25588134
1314363710.02137756,-0.78515065,0.66399252,-0.25394192
1314363710.06150079,-0.78324914,0.66487175,-0.25424302
1314363710.12139797,-0.78410959,0.66475958,-0.25483170
